Weather History for KMRY - May, 2013

Change the Weather History Date:

Tuesday, May 21, 2013

  Actual Average Record
Temperature  
Mean Temperature 56 °F 57 °F  
Max Temperature 62 °F 64 °F 77 °F (2000)
Min Temperature 50 °F 50 °F 47 °F (2003)
Degree Days  
Heating Degree Days 9    
Month to date heating degree days 124  
Since 1 July heating degree days 3067  
Cooling Degree Days 0    
Month to date cooling degree days 7  
Year to date cooling degree days 7  
Growing Degree Days 6 (Base 50)    
Moisture  
Dew Point 46 °F    
Average Humidity 72    
Maximum Humidity 89    
Minimum Humidity 55    
Precipitation  
Precipitation 0.00 in - 0.45 in (2006)
Month to date precipitation T  
Year to date precipitation 3.09  
Since 1 July precipitation 11.33  
Sea Level Pressure  
Sea Level Pressure 30.06 in    
Wind  
Wind Speed 9 mph (WSW)    
Max Wind Speed 17 mph    
Max Gust Speed 26 mph    
Visibility 9 miles    
Events      
T = Trace of Precipitation, MM = Missing Value Source: NWS Daily Summary

Daily Weather History Graph

Daily Weather History Graph

Search for Another Location

Airport or City:

Trip Planner

Search our weather history database for the weather conditions in past years. The results will help you decide how hot, cold, wet, or windy it might be!

Date:

Astronomy

May. 21, 2013 Rise Set
Actual Time 5:55 AM PDT 8:12 PM PDT
Civil Twilight 5:26 AM PDT 8:42 PM PDT
Nautical Twilight 4:50 AM PDT 9:18 PM PDT
Astronomical Twilight 4:11 AM PDT 9:57 PM PDT
Moon 4:37 PM PDT (5/21) 3:20 AM PDT (5/21)
Length of Visible Light 15h 15m
Length of Day
14h 17m
Waxing Gibbous, 85% of the Moon is Illuminated
May 21
Waxing Gibbous
May 24
Full
May 31
Last Quarter
Jun 8
New
Jun 16
First Quarter

Hourly Weather History & Observations

Time (PDT) Temp. Dew Point Humidity Pressure Visibility Wind Dir Wind Speed Gust Speed Precip Events Conditions
12:54 AM 52.0 °F 46.9 °F 83% 30.02 in 9.0 mi SSW 5.8 mph - N/A   Clear
1:14 AM 51.8 °F 46.4 °F 82% 29.99 in 9.0 mi WSW 5.8 mph - N/A   Scattered Clouds
1:27 AM 51.8 °F 46.4 °F 82% 29.98 in 8.0 mi SW 3.5 mph - N/A   Mostly Cloudy
1:54 AM 51.1 °F 46.9 °F 86% 30.01 in 8.0 mi SSW 4.6 mph - N/A   Overcast
2:54 AM 52.0 °F 48.0 °F 86% 30.01 in 8.0 mi WSW 6.9 mph - N/A   Overcast
3:54 AM 52.0 °F 48.0 °F 86% 30.02 in 8.0 mi SW 8.1 mph - N/A   Overcast
4:54 AM 52.0 °F 48.0 °F 86% 30.02 in 8.0 mi SW 6.9 mph - N/A   Overcast
5:54 AM 52.0 °F 46.9 °F 83% 30.04 in 8.0 mi SSW 6.9 mph - N/A   Overcast
6:54 AM 52.0 °F 46.9 °F 83% 30.05 in 7.0 mi SSW 6.9 mph - N/A   Mostly Cloudy
7:01 AM 53.6 °F 46.4 °F 77% 30.02 in 8.0 mi South 8.1 mph - N/A   Partly Cloudy
7:54 AM 54.0 °F 48.0 °F 80% 30.07 in 7.0 mi SW 6.9 mph - N/A   Scattered Clouds
8:54 AM 57.0 °F 46.9 °F 69% 30.08 in 10.0 mi SW 9.2 mph - N/A   Clear
9:54 AM 57.9 °F 48.9 °F 72% 30.09 in 10.0 mi WSW 12.7 mph 20.7 mph N/A   Scattered Clouds
10:06 AM 57.2 °F 48.2 °F 72% 30.06 in 10.0 mi West 12.7 mph 20.7 mph N/A   Mostly Cloudy
10:54 AM 57.0 °F 48.9 °F 74% 30.11 in 10.0 mi West 13.8 mph 18.4 mph N/A   Overcast
11:03 AM 57.2 °F 48.2 °F 72% 30.07 in 10.0 mi West 15.0 mph 20.7 mph N/A   Mostly Cloudy
11:54 AM 57.9 °F 46.9 °F 67% 30.12 in 10.0 mi West 11.5 mph - N/A   Mostly Cloudy
12:00 PM 57.2 °F 46.4 °F 67% 30.08 in 10.0 mi West 12.7 mph 19.6 mph N/A   Scattered Clouds
12:54 PM 61.0 °F 46.0 °F 58% 30.12 in 10.0 mi WSW 12.7 mph 19.6 mph N/A   Scattered Clouds
1:54 PM 60.1 °F 45.0 °F 57% 30.11 in 10.0 mi West 9.2 mph 17.3 mph N/A   Clear
2:54 PM 60.1 °F 45.0 °F 57% 30.10 in 10.0 mi West 9.2 mph 19.6 mph N/A   Clear
3:54 PM 57.9 °F 45.0 °F 62% 30.09 in 10.0 mi Variable 6.9 mph 23.0 mph N/A   Clear
4:54 PM 57.9 °F 45.0 °F 62% 30.07 in 10.0 mi WSW 9.2 mph 24.2 mph N/A   Clear
5:54 PM 55.9 °F 45.0 °F 67% 30.06 in 10.0 mi SW 9.2 mph 19.6 mph N/A   Clear
6:54 PM 55.0 °F 45.0 °F 69% 30.06 in 10.0 mi SW 9.2 mph 18.4 mph N/A   Partly Cloudy
7:54 PM 53.1 °F 44.1 °F 71% 30.07 in 10.0 mi SW 11.5 mph 21.9 mph N/A   Scattered Clouds
8:54 PM 52.0 °F 44.1 °F 74% 30.07 in 10.0 mi WSW 8.1 mph 21.9 mph N/A   Clear
9:54 PM 52.0 °F 43.0 °F 71% 30.09 in 10.0 mi West 6.9 mph 21.9 mph N/A   Clear
10:54 PM 51.1 °F 42.1 °F 71% 30.09 in 10.0 mi WSW 12.7 mph 17.3 mph N/A   Clear
11:54 PM 51.1 °F 43.0 °F 74% 30.07 in 9.0 mi West 13.8 mph 20.7 mph N/A   Clear